Location: Unspecified
(0.0000°N, 0.0000°E)
Time: 18:58:35
(UTC+02:00)

ARIANE 5 R/B - Visible Passes

Search period start: 26 March 2017 00:00
Search period end: 05 April 2017 01:00
Orbit: 558 x 35569 km, 4.9° (Epoch: 24 March)

Date Brightness Start Highest point End Pass type
(mag) Time Alt. Az. Time Alt. Az. Time Alt. Az.
26 Mar 5.9 04:46:51 85° SSE 04:46:51 85° SSE 14:33:06 10° E visible
27 Mar 10.6 07:31:01 10° E 09:40:49 19° E 10:52:52 10° E visible
27 Mar 4.8 22:32:01 10° W 22:37:17 32° WSW 22:37:17 32° WSW visible
29 Mar 6.6 06:44:00 24° W 07:07:07 87° N 16:41:03 10° E visible
30 Mar 6.4 03:51:45 56° E 03:51:45 56° E 13:30:53 10° E visible
31 Mar 3.5 21:27:24 10° W 21:40:54 60° S 21:41:58 49° SE visible
02 Apr 6.2 05:48:56 48° W 05:59:27 89° N 15:41:59 10° E visible
03 Apr 7.1 02:56:42 32° E 02:56:42 32° E 12:26:02 10° E visible
04 Apr 4.5 11:06:49 10° W 20:42:20 69° S 20:46:41 14° ESE visible
